Inversion Research: Below Escarpment

*Note: All times are displayed in the local standard time of the station location.
**Rain - Equipment is designed to accurately record liquid precipitation; under conditions when precipitation is not in liquid form, the data displayed may not properly reflect rainfall values.

Date Max Temp
(°C)
Min Temp
(°C)
Avg Temp
(°C)
Rain (mm) Avg RH (%)
Fri, Feb 15, 2019 6.2 -3.5 2.0 - 81.3
Thu, Feb 14, 2019 5.9 -3.8 0.0 - 76.8
Wed, Feb 13, 2019 1.7 -4.0 -1.9 - 85.5
Tue, Feb 12, 2019 3.0 -4.8 -1.8 - 93.0
Mon, Feb 11, 2019 -1.7 -4.5 -3.0 - 82.1
Sun, Feb 10, 2019 -2.7 -7.9 -5.1 - 76.5
Sat, Feb 09, 2019 -3.5 -8.9 -6.1 - 70.0
DateTime Avg Temp (°C) Rain (mm) RH (%)
Sat, Feb 16, 2019 16:00 -2.1 - 70.9
Sat, Feb 16, 2019 15:00 -2.6 - 73.2
Sat, Feb 16, 2019 14:00 -2.8 - 74.4
Sat, Feb 16, 2019 13:00 -3.2 - 74.7
Sat, Feb 16, 2019 12:00 -3.3 - 74.1
Sat, Feb 16, 2019 11:00 -3.2 - 73.9
Sat, Feb 16, 2019 10:00 -3.1 - 71.2
Sat, Feb 16, 2019 09:00 -3.3 - 71.5
Sat, Feb 16, 2019 08:00 -3.6 - 73.0
Sat, Feb 16, 2019 07:00 -3.4 - 71.1
Sat, Feb 16, 2019 06:00 -2.6 - 72.6
Sat, Feb 16, 2019 05:00 -2.6 - 84.1
Sat, Feb 16, 2019 04:00 -3.0 - 86.6
Sat, Feb 16, 2019 03:00 -3.0 - 84.2
Sat, Feb 16, 2019 02:00 -3.0 - 80.5
Sat, Feb 16, 2019 01:00 -3.1 - 79.3
Sat, Feb 16, 2019 00:00 -3.3 - 77.9
Fri, Feb 15, 2019 23:00 -3.3 - 76.2
Fri, Feb 15, 2019 22:00 -3.0 - 74.5
Fri, Feb 15, 2019 21:00 -2.4 - 73.0
Fri, Feb 15, 2019 20:00 -1.6 - 74.8
Fri, Feb 15, 2019 19:00 -1.1 - 74.6
Fri, Feb 15, 2019 18:00 -0.6 - 74.3
Fri, Feb 15, 2019 17:00 0.1 - 74.0
Fri, Feb 15, 2019 16:00 0.6 - 77.2
Fri, Feb 15, 2019 15:00 1.3 - 76.2
Fri, Feb 15, 2019 14:00 2.3 - 71.5
Fri, Feb 15, 2019 13:00 2.9 - 71.8
Fri, Feb 15, 2019 12:00 3.4 - 79.9
Fri, Feb 15, 2019 11:00 4.1 - 87.5
Fri, Feb 15, 2019 10:00 4.8 - 97.4
Fri, Feb 15, 2019 09:00 4.8 - 99.9
Fri, Feb 15, 2019 08:00 5.0 - 99.9
Fri, Feb 15, 2019 07:00 4.6 - 99.9
Fri, Feb 15, 2019 06:00 4.8 - 99.9
Fri, Feb 15, 2019 05:00 4.7 - 96.6
Fri, Feb 15, 2019 04:00 5.7 - 79.9
Fri, Feb 15, 2019 03:00 5.3 - 71.8
Fri, Feb 15, 2019 02:00 4.5 - 70.1
Fri, Feb 15, 2019 01:00 4.4 - 73.2
Fri, Feb 15, 2019 00:00 5.4 - 67.5
Thu, Feb 14, 2019 23:00 5.0 - 64.3
Thu, Feb 14, 2019 22:00 2.3 - 80.6
Thu, Feb 14, 2019 21:00 1.3 - 82.8
Thu, Feb 14, 2019 20:00 1.1 - 79.2
Thu, Feb 14, 2019 19:00 1.5 - 74.7
Thu, Feb 14, 2019 18:00 2.1 - 69.0
Thu, Feb 14, 2019 17:00 2.6 - 65.8


asterix Register now to access more data! asterix